Retour au catalogue

IGS 7A

ActifMilitaireSSO
NORAD 37954·PAYLOAD·🇯🇵 Japan

Lancé Dec 12, 2011 depuis Tanegashima Space Center

Loading…

Prochains Passages (prochaines 24 heures)

TLE

PériméSource: Mike McCants

Époque: Aug 28, 2026, 22:33 UTC

1 37954U 11075A   26240.93964487 0.00002000  00000-0  99622-4 0    03
2 37954  97.4548 314.4576 0002707 100.9416 259.0582 15.17621095    02

Suivez IGS 7A en temps réel avec AllMySat

Download on the App Store